Regional Weather Roundup
Issued by NWS

Home | Current Version | Previous Version | Graphics & Text | Print | Product List | Glossary On
Versions: 1 2 3 4 5 6 7 8 9 10 11 12 13 14 15 16 17 18 19 20 21 22 23 24 25 26 27 28 29 30 31 32 33 34 35 36 37 38 39 40 41 42 43 44 45 46 47 48 49 50
000
ASUS43 KMPX 180201
RWRMN
WEATHER ROUNDUP FOR MINNESOTA
NATIONAL WEATHER SERVICE TWIN CITIES/CHANHASSEN MN
800 PM CST WED DEC 17 2014


NOTE: "FAIR" INDICATES FEW OR NO CLOUDS BELOW 12,000 FEET WITH NO
SIGNIFICANT WEATHER AND/OR OBSTRUCTIONS TO VISIBILITY. N/A MEANS
CURRENT SKY AND/OR WEATHER CONDITIONS ARE NOT AVAILABLE.

MNZ060>063-068>070-180300-
   Twin Cities Metro

CITY           SKY/WX    TMP DP  RH WIND       PRES   REMARKS
TWIN CITIES    PTCLDY    17   8  67 NE3       30.32S
ST PAUL        PTCLDY    16   9  74 CALM      30.34S
CRYSTAL        MOCLDY    13   9  84 CALM      30.31R
BLAINE         PTCLDY    12  10  92 CALM      30.30S
LAKEVILLE      PTCLDY    12  10  92 CALM      30.32R
EDEN PRAIRIE   CLOUDY    15   9  76 SE3       30.31R
SOUTH ST PAUL  PTCLDY    15  10  80 CALM      30.32S
LAKE ELMO      FAIR      12  10  92 CALM      30.31F
$$
MNZ001>005-007-008-013>017-022>024-027-028-180300-
   Northwest Minnesota

CITY           SKY/WX    TMP DP  RH WIND       PRES   REMARKS
BEMIDJI        PTCLDY    10   8  90 CALM      30.27R
HALLOCK        PTCLDY     9   5  85 CALM      30.31S
ROSEAU         PTCLDY     9   3  78 CALM      30.31F
WARROAD        MOCLDY     7   1  78 CALM      30.31S
THIEF RVR FALL PTCLDY    12  10  92 CALM      30.30R
CROOKSTON      CLEAR     12  10  92 CALM      30.32S
FOSSTON        PTCLDY     7   3  85 CALM      30.30R
DETROIT LAKES  PTCLDY    12  10  92 CALM      30.28S
MOORHEAD       PTCLDY    12  12 100 W7        30.32R WCI   2
PARK RAPIDS    PTCLDY    12   9  87 CALM      30.26R
MAHNOMEN       FAIR       9   6  88 NE6       30.29R WCI  -1
$$
MNZ006-009>011-018-025>026-180300-
   North Central Minnesota

CITY           SKY/WX    TMP DP  RH WIND       PRES   REMARKS
BAUDETTE       MOCLDY     8   4  83 CALM      30.29S
FLAG ISLAND    PTCLDY    10   9  92 CALM      30.30S
INTL FALLS     PTCLDY    12   1  61 E7        30.29F WCI   1
WASKISH        PTCLDY    10   9  92 CALM      30.28F
BIG FORK       CLEAR     12   7  79 NE3       30.27F
LONGVILLE      FAIR       7   5  92 CALM      30.27R
GRAND RAPIDS   PTCLDY    12   7  79 CALM      30.26R
CRANE LAKE     PTCLDY     0  -2  92 CALM      30.34S
ORR            CLEAR      9   5  85 CALM      30.26F
COOK           PTCLDY     3   1  92 CALM      30.28F
WALKER         FAIR      10   7  89 CALM      30.27R
$$
MNZ012-019>021-037-180300-
   Northeast Minnesota

CITY           SKY/WX    TMP DP  RH WIND       PRES   REMARKS
DULUTH         PTCLDY    16  11  80 NE7       30.25S WCI   6
ELY            PTCLDY     5   1  85 CALM      30.29S
HIBBING        PTCLDY    14   8  77 NE5       30.27S WCI   6
EVELETH        PTCLDY    14  10  85 NE5       30.27F WCI   6
DULUTH HARBOR  CLOUDY    25  18  74 N9        30.32S WCI  15
SILVER BAY     MOCLDY    16   9  73 CALM      30.28S
GRAND MARAIS     N/A     17   6  62 N7        30.33F WCI   8
G MARAIS ARPRT MOCLDY     7   0  72 N7        30.25S WCI  -5
$$
MNZ029>031-032-039>041-046>048-054>057-064-180300-
   West Central Minnesota

CITY           SKY/WX    TMP DP  RH WIND       PRES   REMARKS
FERGUS FALLS   PTCLDY     9   7  92 CALM      30.33R
WHEATON        CLEAR      9   7  92 CALM      30.34R
MORRIS         CLEAR      7   5  92 W3        30.29S
ALEXANDRIA     PTCLDY    12   8  84 S5        30.28R WCI   4
ELBOW LAKE     FAIR       8   7  92 CALM      30.29S
WADENA         PTCLDY     9   7  92 NW3       30.27S
GLENWOOD       PTCLDY    10   9  92 SE3       30.29R
APPLETON       CLEAR     10   7  85 CALM      30.31F
BENSON         PTCLDY     9   7  92 CALM      30.31R
ORTONVILLE     PTCLDY    10   7  85 CALM      30.30S
MADISON        PTCLDY    12   9  85 CALM      30.32R
WILLMAR        FAIR      14  10  85 CALM      30.31S
$$
MNZ033>034-036-042>043-049>051-058-059-180300-
   Central Minnesota

CITY           SKY/WX    TMP DP  RH WIND       PRES   REMARKS
ST CLOUD       PTCLDY    13   8  81 SW3       30.30S
SAUK CENTRE    FAIR       9   7  93 CALM      30.29S
PAYNESVILLE    PTCLDY     9   8  96 CALM      30.31R
AITKIN         PTCLDY     9   3  78 CALM      30.27R
PINE RIVER     PTCLDY     9   7  92 CALM      30.30S
BRAINERD       PTCLDY     7   5  91 CALM      30.28S
STAPLES        PTCLDY     9   7  92 CALM      30.27S
LONG PRAIRIE   FAIR       9   7  92 NW3       30.29R
LITTLE FALLS   PTCLDY     9   5  85 CALM      30.30S
LITCHFIELD     CLEAR     14  12  92 CALM      30.31R
BUFFALO        PTCLDY    14  10  86 CALM      30.33R
MAPLE LAKE     PTCLDY    12  11  94 CALM      30.32R
$$
MNZ037-044-045-052-053-180300-
   East Central Minnesota

CITY           SKY/WX    TMP DP  RH WIND       PRES   REMARKS
PRINCETON      CLOUDY    10   7  85 CALM      30.29S
MORA           PTCLDY    14   9  79 CALM      30.31S
CAMBRIDGE      MOCLDY    10   5  79 CALM      30.29S
RUSH CITY      PTCLDY    10   8  92 CALM      30.30F
MOOSE LAKE     PTCLDY    10   9  92 CALM      30.27F
HINCKLEY       FAIR      12  10  92 CALM      30.29F
CLOQUET        PTCLDY    10   9  92 CALM      30.26F
MCGREGOR       PTCLDY    10   9  92 CALM      30.28S
$$
MNZ071>073-080-081-089-090-097-098-180300-
   Southwest Minnesota

CITY           SKY/WX    TMP DP  RH WIND       PRES   REMARKS
MONTEVIDEO     CLEAR     10   9  92 CALM      30.32S
GRANITE FALLS  PTCLDY     9   6  91 CALM      30.34R
CANBY          PTCLDY     8   5  89 SW3       30.32R
MARSHALL       PTCLDY     7   3  85 CALM      30.30F
REDWOOD FALLS  PTCLDY    11   8  88 W6        30.33R WCI   1
OLIVIA         FLURRIES  16  12  86 W5        30.31S WCI   9
PIPESTONE      PTCLDY    10   9  92 E1        30.25F
WINDOM         PTCLDY     9   7  92 CALM      30.29F
WORTHINGTON    PTCLDY    12   9  85 N6        30.26F WCI   3
JACKSON        PTCLDY    12  10  92 CALM      30.27F
TRACY          PTCLDY    10   8  91 CALM      30.30F
SLAYTON        PTCLDY     9   8  93 CALM      30.27F
$$
MNZ065>067-074>077-082>085-091>093-180300-
   South Central Minnesota

CITY           SKY/WX    TMP DP  RH WIND       PRES   REMARKS
MANKATO        CLOUDY    18  10  73 CALM      30.32R
NEW ULM        MOCLDY    12  10  92 W5        30.33R WCI   4
ST JAMES       PTCLDY    12   9  85 W5        30.33S WCI   4
FAIRMONT       MOCLDY    12   9  85 N3        30.29F
GLENCOE        PTCLDY    16  13  88 CALM      30.31R
FARIBAULT      FLURRIES  18  12  79 NE5       30.31R WCI  11
OWATONNA       PTCLDY    16  10  79 CALM      30.30R
WASECA         PTCLDY    14  12  92 CALM      30.32R
ALBERT LEA     PTCLDY    16  14  93 CALM      30.28F
$$
MNZ078>079-086>088-094>096-180300-
   Southeast Minnesota

CITY           SKY/WX    TMP DP  RH WIND       PRES   REMARKS
ROCHESTER      CLOUDY    17  11  77 NE5       30.28S WCI  10
RED WING       PTCLDY    12   9  85 CALM      30.32R
STANTON        FAIR      15  10  82 NE3       30.31R
DODGE CENTER   PTCLDY    16  12  86 CALM      30.28S
WINONA         CLOUDY    21  14  73 NE6       30.33S WCI  14
AUSTIN         CLOUDY    18  12  79 NE3       30.28S
PRESTON        FLURRIES  17  12  83 CALM      30.29R
$$
ABBREVIATIONS USED IN REMARKS
   TC - TEMPERATURES IN CELSIUS
  WCI - WIND CHILL INDEX
   HX - HEAT INDEX
  VSB - VISIBILITY
$$


USA.gov is the U.S. government's official web portal to all federal, state and local government web resources and services.